Flag for Cuba Weather past 2 weeks in Holguín, Cuba

Now
61 °F

Passing clouds.


Feels Like: 61 °F
Forecast: 67 / 81 °F
Wind: 6 mph from East

Location: Holguin Civ / Mil

Current Time: Feb 1, 2015 at 4:24:04 AM

Latest Report: Feb 1, 2015 at 3:50 AM


Visibility: N/A

Pressure: 30.07 "Hg

Humidity: 88%

Dew point: 57 °F

Location of HolguínLocation

Historic Weather in Holguín — Graph

°F

Holguín temperature yesterday

Maximum temperature yesterday: 81 °F (at 10:51 AM)
Minimum temperature yesterday: 55 °F (at 4:50 AM)
Average temperature yesterday: 68 °F

Past Weeks' High & Low Weather Summary

 TemperatureHumidityPressure
High90 °F (Jan 24, 1:52 PM)94% (Jan 17, 5:51 AM)30.12 "Hg (Jan 17, 5:51 AM)
Low55 °F (Jan 31, 4:50 AM)29% (Jan 24, 3:51 PM)29.92 "Hg (Jan 24, 2:51 PM)
Average73 °F71%30.03 "Hg
* Reported Jan 17 2:50 AM — Feb 1 2:50 AM, Holguín, Weather by CustomWeather, © 2014

Note: Actual official high and low records may vary slightly from our data, if they occured in-between our weather recording intervals... More about our weather records

Advertising

Holguín weather history for previous 24 hours

 ConditionsComfort  
Time TempWeatherWind HumidityBarometerVisibility
2:50 AM
Feb 1
61 °FClear.6 mph83%30.07 "Hg10 mi
1:50 AM61 °FClear.8 mph83%30.07 "Hg10 mi
12:50 AM61 °FClear.6 mph83%30.09 "Hg10 mi
11:50 PM
Jan 31
63 °FClear.7 mph77%30.09 "Hg10 mi
10:50 PM61 °FClear.6 mph77%30.12 "Hg10 mi
9:50 PM63 °FClear.5 mph77%30.12 "Hg10 mi
8:50 PM66 °FClear.8 mph68%30.12 "Hg10 mi
7:50 PM70 °FClear.8 mph64%30.09 "Hg10 mi
6:50 PM70 °FClear.10 mph64%30.09 "Hg10 mi
5:52 PM73 °FPassing clouds.16 mph57%30.07 "HgN/A
4:51 PM75 °FScattered clouds.18 mph54%30.07 "HgN/A
3:50 PM77 °FPassing clouds.17 mph54%30.04 "HgN/A
2:50 PM77 °FScattered clouds.17 mph54%30.04 "HgN/A
1:50 PM79 °FScattered clouds.20 mph51%30.04 "Hg6 mi
12:51 PM81 °FPartly sunny.16 mph48%30.07 "Hg6 mi
11:50 AM81 °FScattered clouds.14 mph42%30.09 "Hg6 mi
10:51 AM81 °FPassing clouds.14 mph37%30.09 "Hg6 mi
9:51 AM77 °FPassing clouds.12 mph44%30.12 "Hg6 mi
8:50 AM73 °FPassing clouds.10 mph53%30.12 "Hg6 mi
7:51 AM66 °FPassing clouds.3 mph78%30.09 "Hg6 mi
6:50 AM57 °FFog.3 mph88%30.09 "Hg4 mi
5:50 AM55 °FFog.2 mph94%30.07 "Hg4 mi
4:50 AM55 °FFog.2 mph94%30.07 "Hg4 mi
Weather by CustomWeather, © 2014

See weather overviewHow to use our weather pages